This is the latest recevied weather packets stored in our database for station/object KC5DAQ-27. If no packets are shown the sender has not sent any weather packets the latest 1 day(s).
| Time | Temp. | Humidity | Pressure | Rain* | Wind** | Luminosity | Snow |
|---|---|---|---|---|---|---|---|
| 1778033145 | 25.56° C | 86% | 998.9 hPa | 0 mm | 2.68 m/s, 206° | 0 W/m² | - |
| 1778033086 | 25.56° C | 86% | 998.9 hPa | 0 mm | 3.13 m/s, 193° | 0 W/m² | - |
| 1778033026 | 25.56° C | 86% | 998.9 hPa | 0 mm | 3.58 m/s, 199° | 0 W/m² | - |
| 1778032966 | 25.56° C | 86% | 998.9 hPa | 0 mm | 3.58 m/s, 173° | 0 W/m² | - |
| 1778032906 | 25.56° C | 86% | 998.9 hPa | 0 mm | 4.02 m/s, 183° | 0 W/m² | - |
| 1778032846 | 25.56° C | 86% | 998.8 hPa | 0 mm | 4.92 m/s, 179° | 0 W/m² | - |
| 1778032785 | 25.56° C | 86% | 998.9 hPa | 0 mm | 4.92 m/s, 180° | 0 W/m² | - |
| 1778032726 | 25.56° C | 86% | 998.9 hPa | 0 mm | 4.92 m/s, 189° | 0 W/m² | - |
| 1778032666 | 25.56° C | 86% | 998.8 hPa | 0 mm | 4.47 m/s, 195° | 0 W/m² | - |
| 1778032606 | 25.56° C | 86% | 998.8 hPa | 0 mm | 3.58 m/s, 189° | 0 W/m² | - |
| 1778032545 | 25.56° C | 86% | 998.7 hPa | 0 mm | 3.13 m/s, 210° | 0 W/m² | - |
| 1778032485 | 25.56° C | 86% | 998.7 hPa | 0 mm | 4.02 m/s, 168° | 0 W/m² | - |
| 1778032427 | 25.56° C | 86% | 998.7 hPa | 0 mm | 4.47 m/s, 176° | 0 W/m² | - |
| 1778032373 | 25.56° C | 86% | 998.8 hPa | 0 mm | 4.02 m/s, 182° | 0 W/m² | - |
| 1778032305 | 25.56° C | 86% | 998.7 hPa | 0 mm | 3.13 m/s, 164° | 0 W/m² | - |
| 1778032245 | 25.56° C | 86% | 998.7 hPa | 0 mm | 3.58 m/s, 154° | 0 W/m² | - |
| 1778032186 | 25.56° C | 86% | 998.7 hPa | 0 mm | 3.58 m/s, 176° | 0 W/m² | - |
| 1778032126 | 25.56° C | 86% | 998.6 hPa | 0 mm | 3.58 m/s, 190° | 0 W/m² | - |
| 1778032065 | 26.11° C | 86% | 998.6 hPa | 0 mm | 3.58 m/s, 190° | 0 W/m² | - |
| 1778032006 | 26.11° C | 86% | 998.7 hPa | 0 mm | 3.58 m/s, 175° | 0 W/m² | - |
| 1778031945 | 26.11° C | 86% | 998.6 hPa | 0 mm | 3.13 m/s, 182° | 0 W/m² | - |
| 1778031885 | 26.11° C | 86% | 998.6 hPa | 0 mm | 3.13 m/s, 185° | 0 W/m² | - |
| 1778031825 | 26.11° C | 86% | 998.6 hPa | 0 mm | 3.58 m/s, 185° | 0 W/m² | - |
| 1778031766 | 26.11° C | 86% | 998.6 hPa | 0 mm | 3.13 m/s, 180° | 0 W/m² | - |
| 1778031705 | 26.11° C | 86% | 998.6 hPa | 0 mm | 3.13 m/s, 193° | 0 W/m² | - |
* Rain latest hour (hover to see other rain measurements)
** Current wind speed in m/s (hover to see current wind gust speed)